Marshalltown, IA

8:46 PM CST on February 13, 2016 (GMT -0600)
Marshalltown Municipal

Weather History for KMIW - February, 2015

Change the Weather History Date:

Saturday, February 14, 2015

  Actual Average Record
Temperature  
Mean Temperature 12 °F 23 °F  
Max Temperature 24 °F 32 °F 63 °F (2006)
Min Temperature 0 °F 13 °F -6 °F (2007)
Degree Days  
Heating Degree Days 53 42  
Month to date heating degree days 677 614  
Since 1 July heating degree days 4822 4847  
Cooling Degree Days 0 0  
Month to date cooling degree days 0 0  
Year to date cooling degree days 0 0  
Moisture  
Dew Point -1 °F    
Average Humidity 60    
Maximum Humidity 73    
Minimum Humidity 46    
Precipitation  
Precipitation T in 0.02 in 0.06 in (2000)
Month to date precipitation 0.12 0.35  
Sea Level Pressure  
Sea Level Pressure 30.38 in    
Wind  
Wind Speed 19 mph (North)    
Max Wind Speed 33 mph    
Max Gust Speed 41 mph    
Visibility 10 miles    
Events      
T = Trace of Precipitation, MM = Missing Value Source: NWS Daily Summary

Daily Weather History Graph

Daily Weather History Graph

Search for Another Location

Airport or City:

Trip Planner

Search our weather history database for the weather conditions in past years. The results will help you decide how hot, cold, wet, or windy it might be!

Date:

Astronomy

Feb. 14, 2015 Rise Set
Actual Time 7:09 AM CST 5:42 PM CST
Civil Twilight 6:40 AM CST 6:11 PM CST
Nautical Twilight 6:07 AM CST 6:44 PM CST
Astronomical Twilight 5:35 AM CST 7:16 PM CST
Moon 3:14 AM CST 1:15 PM CST
Length of Visible Light 11h 31m
Length of Day
10h 33m
Waning Crescent, 24% of the Moon is Illuminated
Feb 14
Waning Crescent
Feb 18
New
Feb 25
First Quarter
Mar 5
Full
Mar 13
Last Quarter

Hourly Weather History & Observations

Time (CST) Temp. Windchill Dew Point Humidity Pressure Visibility Wind Dir Wind Speed Gust Speed Precip Events Conditions
12:53 AM 23.0 °F 9.6 °F 14.0 °F 68% 30.06 in 10.0 mi NW 16.1 mph - N/A   Overcast
1:53 AM 21.9 °F 7.8 °F 12.9 °F 68% 30.06 in 10.0 mi NW 17.3 mph - N/A   Overcast
2:53 AM 21.0 °F 5.7 °F 12.9 °F 71% 30.09 in 10.0 mi NW 19.6 mph 25.3 mph N/A   Overcast
3:53 AM 19.9 °F 3.9 °F 12.0 °F 71% 30.11 in 10.0 mi NW 20.7 mph - N/A   Overcast
4:53 AM 19.0 °F 2.0 °F 10.0 °F 68% 30.12 in 10.0 mi NNW 23.0 mph 34.5 mph 0.00 in   Overcast
5:53 AM 18.0 °F -0.8 °F 7.0 °F 62% 30.16 in 10.0 mi NNW 27.6 mph 35.7 mph N/A   Overcast
6:53 AM 16.0 °F -4.1 °F 3.0 °F 57% 30.22 in 10.0 mi NNW 29.9 mph 36.8 mph N/A   Overcast
7:53 AM 12.0 °F -8.5 °F 1.0 °F 61% 30.28 in 10.0 mi NNW 26.5 mph 36.8 mph N/A   Scattered Clouds
8:53 AM 10.0 °F -10.8 °F -0.9 °F 61% 30.33 in 10.0 mi North 25.3 mph 33.4 mph N/A   Clear
9:53 AM 9.0 °F -13.0 °F -5.1 °F 53% 30.38 in 10.0 mi North 27.6 mph 35.7 mph N/A   Clear
10:53 AM 10.0 °F -11.5 °F -5.1 °F 51% 30.42 in 10.0 mi NNW 27.6 mph 33.4 mph N/A   Clear
11:53 AM 10.0 °F -10.4 °F -5.1 °F 51% 30.44 in 10.0 mi North 24.2 mph - N/A   Clear
12:53 PM 10.0 °F -10.0 °F -7.1 °F 46% 30.45 in 10.0 mi NNW 23.0 mph 27.6 mph N/A   Clear
1:53 PM 10.9 °F -7.5 °F -7.1 °F 44% 30.45 in 10.0 mi North 19.6 mph 27.6 mph N/A   Clear
2:53 PM 9.0 °F -9.5 °F -6.0 °F 51% 30.50 in 10.0 mi NNW 18.4 mph - N/A   Clear
3:53 PM 9.0 °F -9.5 °F -6.0 °F 51% 30.51 in 10.0 mi NNW 18.4 mph - N/A   Clear
4:53 PM 7.0 °F -9.8 °F -6.0 °F 55% 30.53 in 10.0 mi North 13.8 mph - N/A   Clear
5:53 PM 5.0 °F -10.8 °F -6.0 °F 61% 30.55 in 10.0 mi North 11.5 mph - N/A   Clear
6:53 PM 3.0 °F -14.8 °F -7.1 °F 63% 30.57 in 10.0 mi North 13.8 mph - N/A   Clear
7:53 PM 1.9 °F -14.7 °F -8.0 °F 63% 30.59 in 10.0 mi NNE 11.5 mph - N/A   Clear
8:53 PM 1.0 °F -14.0 °F -9.0 °F 63% 30.59 in 10.0 mi NE 9.2 mph - N/A   Clear
9:53 PM -0.0 °F -11.6 °F -9.0 °F 66% 30.62 in 10.0 mi North 5.8 mph - N/A   Clear
10:53 PM 1.0 °F -14.9 °F -9.0 °F 63% 30.60 in 10.0 mi NE 10.4 mph - N/A   Clear
11:53 PM 1.9 °F -13.8 °F -9.0 °F 60% 30.60 in 10.0 mi NE 10.4 mph - N/A   Clear